Wind_Speed
32 32 32 35 39 43 45 44 45 44 41 41 36 34 35 35 34 33 42 44 41 41 49 51 55 53 58 59 65 72 78 86 96 103 113 108 102 96 90 86 87 87 86 84 82 82 75 82 90 94 90 92 92 94
28 28 30 33 38 40 41 41 40 38 36 31 29 29 29 28 29 29 36 34 34 32 45 41 44 47 49 53 61 67 68 76 84 98 99 103 98 89 81 85 85 80 75 78 81 78 75 79 85 89 88 89 86 84
24 24 28 32 37 37 39 38 36 32 28 26 23 23 23 23 22 23 26 26 25 29 36 34 41 43 43 48 60 62 66 72 84 98 104 105 101 91 85 80 83 78 78 79 82 76 80 80 80 83 81 79 80 81
22 23 27 32 37 37 37 35 31 27 24 19 19 19 18 18 15 19 19 19 20 22 27 32 32 39 44 46 55 59 69 72 86 96 103 104 101 91 86 85 82 81 79 81 78 81 88 87 84 84 84 83 82 83
19 21 26 31 37 36 35 32 27 23 19 15 15 17 19 18 15 15 15 16 16 19 21 22 31 36 40 43 53 61 61 68 79 89 97 100 87 91 82 83 79 77 75 77 80 80 82 82 83 84 85 87 84 83
18 20 25 30 35 36 33 29 25 21 14 13 13 14 15 15 14 9 7 13 16 18 20 27 28 31 37 42 48 53 59 63 71 75 71 74 81 80 81 75 73 74 75 79 80 82 84 81 81 84 87 89 91 92
18 20 24 30 35 37 31 26 22 20 13 13 12 12 11 12 10 8 4 8 13 16 18 23 27 34 41 44 46 50 54 55 63 68 75 80 84 80 74 71 72 74 73 74 77 80 82 81 82 82 86 91 89 88
18 20 23 28 34 36 31 26 20 20 15 13 10 10 8 9 7 7 3 5 10 13 19 21 23 30 36 41 47 50 53 60 60 67 66 72 81 76 69 65 68 70 70 75 76 79 80 81 85 88 89 88 91 92
18 19 23 27 32 34 31 26 20 16 17 15 11 8 5 6 4 3 2 3 8 16 19 22 28 32 35 40 42 46 48 47 47 50 57 64 64 55 57 62 66 71 74 78 77 80 84 86 88 89 90 90 93 92
18 19 22 26 30 33 31 27 21 14 16 14 13 8 4 2 1 1 3 4 8 18 21 23 26 28 39 46 49 50 45 44 47 54 60 63 59 58 60 65 70 73 75 75 81 84 87 88 92 93 91 93 96 97
19 20 22 25 28 32 31 27 23 17 12 13 12 10 5 1 1 3 4 5 9 16 22 26 29 30 39 44 47 45 45 47 48 52 55 57 57 60 63 65 69 72 78 79 87 86 91 95 97 96 95 94 96 95
20 20 22 24 27 31 31 28 25 20 15 7 9 9 8 4 3 6 9 8 8 12 20 26 32 36 39 44 47 50 50 52 54 57 61 60 60 62 64 67 68 69 77 84 90 95 96 99 100 100 100 99 95 90
21 20 21 24 26 30 31 30 25 20 15 10 4 9 10 10 8 8 9 13 17 17 18 23 30 37 39 44 50 54 56 57 57 60 61 61 63 67 69 70 70 72 79 82 91 95 99 100 99 98 97 94 87 87
24 21 21 23 25 28 30 31 28 24 17 11 7 4 12 13 14 14 15 16 18 20 23 23 26 31 36 43 47 46 49 53 57 57 61 65 67 70 70 70 71 73 76 80 83 86 88 90 91 90 90 86 87 89
29 25 22 23 25 27 29 31 29 26 22 14 7 5 7 15 19 19 21 21 22 23 25 26 28 32 37 38 36 41 36 44 48 57 61 65 66 65 67 68 70 72 74 77 81 80 80 81 84 87 86 87 89 88
32 29 25 24 25 26 28 29 30 28 24 19 14 7 6 8 14 21 25 26 27 28 29 30 31 33 36 39 42 39 43 35 44 47 54 56 57 61 64 66 67 67 69 73 75 76 76 77 78 79 81 83 84 84
37 33 29 27 27 27 28 29 29 29 27 23 19 15 12 10 11 14 20 28 32 32 33 33 35 37 37 39 42 44 43 42 42 46 54 58 57 57 59 61 62 63 66 68 70 70 71 73 75 77 78 80 82 84
42 38 34 31 29 29 29 28 28 29 27 27 23 19 16 15 14 14 16 20 25 30 36 39 39 40 42 45 47 48 49 50 51 51 51 52 54 56 57 58 59 59 60 62 64 67 68 70 73 75 77 79 81 83
46 42 39 36 34 31 32 30 30 29 28 26 26 23 21 18 17 18 18 19 20 24 29 32 37 42 46 48 50 52 54 56 57 59 59 60 61 63 64 64 65 66 66 66 67 67 67 69 71 73 75 77 78 78
51 47 45 41 38 35 35 34 31 29 28 27 27 25 22 21 20 21 21 21 22 22 23 25 28 33 36 40 45 50 55 57 58 59 61 63 65 66 66 67 67 67 68 69 71 71 72 73 73 73 74 76 76 79
55 52 49 47 44 41 38 36 35 32 31 29 27 26 24 22 21 21 22 23 25 25 21 21 25 28 31 34 38 41 44 46 49 51 53 55 58 61 63 65 67 69 71 73 74 74 74 75 75 76 77 76 75 71
61 58 55 52 49 46 43 40 37 34 33 31 29 29 27 24 23 21 21 22 25 27 26 23 23 26 28 29 32 34 37 40 41 44 47 50 53 55 56 57 58 60 61 62 62 63 63 63 63 62 60 59 55 50
67 64 61 56 52 50 49 44 39 37 36 33 31 30 30 27 26 24 21 21 23 25 25 25 23 25 27 27 29 30 32 33 36 39 42 45 47 49 51 50 51 51 52 52 51 51 51 50 48 46 42 39 35 30
71 68 64 59 56 55 53 49 48 43 40 37 35 33 31 28 28 26 24 21 22 22 22 22 21 21 23 24 26 28 30 31 32 33 32 32 32 34 35 35 36 36 36 36 36 36 35 34 33 30 27 24 22 23
73 71 66 63 62 61 59 54 50 46 43 39 37 35 31 29 29 28 26 23 21 21 21 21 19 19 20 20 22 23 23 24 24 23 21 22 23 24 24 24 25 26 26 26 26 26 25 23 21 19 18 18 20 22
77 75 71 68 65 63 60 55 48 45 42 38 37 34 32 33 32 31 29 26 23 21 20 19 18 17 16 18 18 16 17 15 14 12 12 12 13 14 15 15 17 19 20 21 20 19 18 17 16 15 16 18 19 22
75 72 71 72 68 64 59 54 49 46 44 43 41 38 36 35 33 33 31 29 26 21 20 19 17 16 16 15 15 14 10 8 6 6 7 8 9 10 11 13 15 17 17 17 16 15 15 14 14 15 16 19 22 27
72 71 69 65 64 61 59 56 52 49 48 47 44 40 37 37 35 33 32 29 29 24 20 20 18 16 15 15 14 11 8 8 7 8 10 10 10 11 12 13 13 13 14 14 14 14 14 14 14 15 19 23 25 28
76 73 71 69 66 62 60 58 55 54 53 50 47 43 41 39 38 36 33 29 30 27 23 22 21 19 17 17 16 15 15 16 16 15 14 13 12 12 13 13 13 13 14 15 15 15 15 16 17 19 21 23 24 27
77 75 73 70 67 65 63 59 56 54 52 52 49 45 44 43 42 40 37 33 31 31 28 26 25 24 21 20 21 21 21 21 21 19 17 17 16 15 15 15 15 15 15 16 16 17 17 18 19 19 20 22 25 28
78 76 74 71 69 66 64 62 59 56 55 53 52 51 49 46 44 42 41 39 36 35 34 30 30 29 28 26 25 26 26 25 26 24 22 20 19 19 18 16 16 17 17 17 17 18 18 18 18 19 21 25 29 31
72 72 71 70 69 68 65 63 63 62 60 57 57 54 50 49 48 45 43 41 40 39 38 36 34 34 33 32 31 30 32 31 29 29 27 24 23 22 21 19 19 20 20 20 20 20 21 22 23 25 27 30 33 35
68 68 68 67 66 66 66 65 63 62 61 60 58 56 53 52 51 48 45 43 42 42 41 41 39 38 38 38 37 36 36 36 36 34 33 32 30 28 26 25 24 24 24 24 25 25 26 28 29 30 32 34 37 39
Wind_Direction
264 270 281 294 301 302 302 303 302 295 289 286 283 280 276 273 268 260 258 258 256 250 250 243 241 238 233 229 226 224 222 221 218 219 219 222 223 224 223 226 231 238 241 244 246 245 242 243 245 248 250 252 256 260
264 277 291 303 310 309 310 308 304 295 292 286 283 282 280 278 273 266 263 263 256 250 247 242 238 234 228 223 223 223 218 218 216 216 220 223 224 224 224 226 230 237 242 241 240 242 244 241 243 247 249 254 258 260
272 288 300 313 318 317 317 314 304 297 288 285 281 281 282 283 279 277 272 266 256 248 247 237 231 227 221 219 220 217 213 213 212 213 214 216 221 221 220 223 228 230 235 236 237 241 240 242 244 248 251 252 254 257
279 296 310 320 325 325 324 319 307 298 291 283 285 289 288 283 287 285 276 261 246 241 240 229 223 217 211 211 214 211 209 208 210 210 213 215 217 218 217 220 226 230 231 233 237 235 238 242 243 247 250 252 254 256
285 304 318 326 330 331 329 324 311 301 293 288 289 290 287 285 288 291 288 271 247 236 232 220 217 212 204 203 211 209 205 207 210 211 211 214 215 219 219 222 226 231 235 235 235 237 240 242 243 245 247 249 250 254
290 309 324 331 333 335 335 331 314 305 294 285 286 281 286 293 292 285 287 276 258 244 226 213 208 206 203 200 208 207 203 204 209 212 214 214 218 219 221 223 226 231 231 232 234 237 241 242 243 245 247 249 251 252
292 310 326 334 337 339 339 339 313 307 293 291 294 288 294 295 286 288 272 271 255 244 230 218 207 206 201 197 197 200 203 202 205 205 206 211 215 218 219 221 226 230 232 230 233 236 240 244 245 246 247 249 251 255
289 308 325 334 339 341 340 342 329 302 299 287 294 293 311 312 322 296 285 276 248 225 213 198 205 207 201 193 192 193 196 199 202 204 206 208 214 216 216 220 226 229 227 227 231 235 238 242 245 246 248 251 254 257
285 306 321 334 340 342 343 340 343 306 292 290 290 298 315 320 326 332 287 240 227 224 202 195 198 194 195 187 187 186 193 196 197 203 207 210 214 213 216 223 227 228 226 226 231 235 239 241 244 247 252 254 256 258
284 302 318 330 339 341 344 341 342 341 287 283 294 291 295 326 7 173 182 223 230 206 195 190 189 207 192 185 179 177 181 190 193 200 208 210 211 208 217 222 226 226 225 227 232 237 240 242 243 248 253 256 259 261
280 298 315 326 335 339 342 346 342 343 330 276 278 288 276 263 113 158 187 205 229 214 198 188 177 188 191 185 178 181 183 188 196 204 209 213 213 216 221 223 225 226 227 227 232 238 242 243 246 250 254 258 261 265
273 292 309 322 332 335 339 345 346 340 345 317 256 268 265 212 206 171 181 194 218 238 206 193 186 185 187 186 185 188 189 192 196 204 210 213 214 218 221 222 223 226 228 230 233 239 245 248 250 252 255 259 262 265
265 283 302 314 325 331 334 336 343 345 336 336 275 218 248 239 200 203 199 204 194 205 223 214 201 197 196 199 198 197 198 198 201 207 211 214 217 220 221 221 222 227 231 233 234 237 241 246 248 252 256 259 264 268
261 274 291 306 317 324 329 331 334 339 338 330 323 217 206 219 230 214 209 216 214 213 209 218 224 216 218 212 213 218 215 207 207 212 217 219 219 220 221 223 227 233 237 239 241 244 246 249 253 257 260 264 266 268
259 268 281 296 309 318 325 328 326 330 330 328 310 281 213 208 215 221 225 216 216 223 224 219 216 221 226 231 237 236 231 229 221 217 219 223 225 226 227 230 233 237 240 244 249 252 254 257 259 259 263 267 271 274
254 262 272 284 298 309 317 324 321 321 325 326 319 293 249 230 213 214 224 229 229 222 223 227 230 230 230 229 234 235 241 242 242 243 235 237 235 228 230 235 240 243 247 252 256 259 261 262 266 268 270 273 276 279
252 258 265 274 287 298 307 317 317 317 318 319 318 309 290 252 230 230 221 219 230 236 236 233 228 228 233 235 234 237 241 241 239 236 234 237 243 244 242 243 245 248 250 253 257 259 262 263 266 269 273 276 278 280
250 255 261 269 278 289 298 308 314 311 312 311 312 309 295 283 266 241 227 229 230 229 231 236 241 237 234 234 236 239 241 242 243 244 246 248 251 255 257 259 260 260 260 260 261 262 264 266 268 271 274 275 276 277
249 253 258 264 273 279 288 298 307 304 302 303 304 305 301 288 272 261 254 246 236 232 234 236 237 238 240 242 242 242 241 241 242 244 246 247 247 248 249 250 252 254 256 258 259 262 264 266 267 269 270 271 274 278
247 251 256 262 267 274 281 290 297 298 295 295 296 299 297 292 284 275 268 258 249 246 247 247 244 242 242 243 245 246 247 248 250 251 252 253 253 254 254 254 255 256 257 259 261 263 264 266 268 270 273 275 277 279
247 250 255 259 264 269 274 282 288 290 289 287 287 291 291 290 283 276 269 269 269 264 250 247 252 254 252 247 245 244 246 248 250 252 254 255 256 257 258 259 259 260 261 262 263 264 265 266 267 269 271 274 276 279
246 249 252 256 261 266 269 276 279 281 283 282 282 285 287 288 284 278 270 265 264 265 268 267 264 264 261 257 251 250 250 252 253 254 254 254 253 252 253 253 254 255 257 258 259 261 261 262 265 268 270 273 274 275
245 248 251 254 258 262 266 268 270 276 278 278 280 283 286 286 284 281 273 265 262 263 264 265 262 262 266 266 260 255 256 258 260 261 261 259 257 255 253 252 252 252 253 253 255 257 259 259 261 263 264 264 264 265
244 246 249 252 256 258 261 265 271 271 270 271 275 278 281 283 284 281 279 274 267 266 266 266 266 266 267 264 264 265 265 267 268 267 264 260 256 251 248 245 245 245 245 246 246 247 248 249 251 250 247 248 253 261
243 246 249 251 254 257 260 263 264 265 266 265 266 268 271 276 279 278 277 277 274 269 269 268 270 270 269 266 265 264 265 265 262 258 255 249 245 242 239 236 234 233 234 234 234 234 232 227 226 229 237 248 258 268
242 244 247 249 251 254 257 257 256 256 258 257 260 262 266 270 275 275 275 273 271 267 265 266 268 270 268 268 261 265 262 261 254 247 241 231 225 221 218 217 217 217 210 206 202 201 204 211 219 231 245 258 269 281
240 242 243 246 248 248 250 252 252 253 254 255 257 259 262 265 269 271 270 272 271 263 262 263 263 265 270 255 253 245 247 238 209 191 186 181 179 182 183 184 186 189 190 191 195 202 208 219 231 245 261 272 281 287
238 240 241 242 243 245 247 249 249 250 250 252 254 255 258 261 265 266 266 265 265 261 255 255 256 258 256 254 241 229 219 215 198 192 185 183 183 186 186 190 193 196 198 200 209 215 225 234 245 258 269 278 287 294
237 238 239 241 242 243 245 246 246 247 249 251 253 252 252 254 257 259 260 260 259 258 250 246 246 247 244 243 224 211 203 204 196 201 203 196 190 197 201 202 206 213 217 220 224 232 242 252 262 272 281 289 294 300
236 238 239 240 241 242 242 243 243 245 247 248 249 249 250 251 252 253 253 255 256 255 251 240 238 238 235 237 225 212 209 214 209 206 204 206 206 212 213 216 220 225 231 236 242 249 257 265 273 279 287 294 300 306
235 237 238 240 241 242 243 244 244 244 245 246 247 247 247 248 250 250 248 250 251 249 249 242 233 233 233 231 231 222 217 219 218 216 216 217 217 222 226 229 233 236 239 245 251 257 264 268 275 283 291 297 303 309
233 235 237 239 240 240 242 243 243 244 245 245 245 247 247 246 247 247 246 246 245 242 242 243 236 230 231 231 231 230 225 223 223 224 224 223 224 228 232 234 238 242 245 248 254 259 265 273 280 287 293 297 302 309
229 231 233 234 236 237 237 238 240 240 240 241 243 243 244 244 244 244 244 243 242 241 239 239 240 235 230 229 231 231 231 230 230 228 227 228 229 231 234 238 242 246 249 253 258 263 269 276 281 286 290 297 302 307
Height
10233 10232 10230 10225 10218 10208 10198 10187 10175 10164 10156 10150 10144 10138 10133 10130 10128 10128 10121 10121 10126 10133 10131 10135 10138 10150 10154 10165 10177 10188 10193 10211 10233 10253 10276 10299 10324 10350 10373 10395 10403 10415 10423 10435 10446 10454 10474 10479 10482 10489 10495 10493 10497 10496
10225 10223 10220 10214 10205 10195 10184 10172 10162 10153 10146 10140 10134 10129 10124 10120 10117 10116 10112 10115 10116 10121 10117 10126 10131 10135 10144 10151 10163 10170 10189 10203 10230 10251 10280 10293 10316 10343 10374 10378 10388 10400 10419 10421 10427 10443 10453 10458 10464 10471 10478 10478 10479 10479
10216 10214 10209 10202 10193 10183 10172 10161 10151 10144 10139 10132 10127 10122 10118 10114 10111 10109 10108 10107 10108 10110 10112 10116 10114 10122 10135 10145 10148 10163 10176 10191 10215 10234 10252 10273 10295 10326 10347 10369 10371 10383 10393 10402 10410 10431 10436 10441 10447 10451 10456 10459 10461 10464
10207 10204 10199 10192 10183 10173 10163 10152 10143 10137 10131 10126 10122 10118 10114 10110 10106 10106 10103 10102 10101 10102 10103 10106 10113 10117 10121 10136 10145 10155 10156 10178 10189 10210 10232 10255 10281 10306 10330 10344 10354 10365 10372 10386 10403 10416 10418 10424 10431 10433 10438 10442 10444 10447
10198 10195 10189 10183 10175 10165 10156 10146 10136 10130 10126 10122 10118 10115 10111 10108 10105 10105 10104 10102 10099 10097 10100 10106 10109 10114 10120 10129 10138 10141 10155 10171 10186 10203 10226 10251 10279 10294 10319 10331 10350 10358 10368 10376 10387 10394 10400 10405 10409 10416 10421 10425 10431 10434
10190 10187 10182 10176 10169 10159 10150 10140 10130 10125 10123 10119 10116 10113 10109 10107 10105 10102 10101 10100 10100 10100 10100 10099 10105 10111 10118 10122 10133 10145 10151 10163 10181 10204 10231 10258 10277 10294 10310 10332 10339 10345 10351 10360 10371 10376 10381 10389 10395 10400 10405 10410 10414 10416
10182 10179 10176 10170 10163 10154 10145 10137 10127 10123 10120 10117 10115 10111 10108 10106 10103 10101 10098 10097 10097 10100 10102 10104 10105 10109 10113 10120 10131 10144 10154 10171 10184 10205 10230 10250 10264 10281 10305 10322 10324 10329 10337 10348 10357 10363 10368 10373 10377 10383 10388 10391 10394 10396
10175 10173 10170 10166 10159 10150 10141 10135 10127 10121 10119 10116 10114 10110 10108 10106 10102 10099 10097 10096 10098 10100 10102 10103 10108 10111 10115 10123 10131 10143 10155 10169 10187 10205 10223 10245 10256 10275 10297 10308 10313 10317 10325 10334 10343 10348 10354 10358 10361 10366 10369 10373 10376 10378
10168 10167 10164 10161 10155 10148 10140 10133 10127 10120 10117 10115 10114 10111 10107 10106 10103 10100 10098 10099 10101 10104 10103 10105 10108 10112 10121 10126 10137 10147 10159 10175 10193 10208 10224 10239 10255 10281 10292 10296 10299 10305 10313 10320 10328 10334 10338 10342 10344 10348 10353 10357 10358 10359
10160 10160 10158 10155 10151 10145 10139 10131 10125 10121 10115 10115 10113 10112 10109 10107 10105 10103 10102 10103 10105 10106 10107 10110 10114 10120 10122 10128 10138 10149 10164 10180 10196 10210 10221 10233 10251 10268 10276 10281 10284 10292 10301 10308 10314 10317 10321 10325 10327 10331 10335 10338 10340 10341
10152 10152 10152 10150 10147 10142 10137 10130 10124 10119 10115 10114 10113 10111 10111 10108 10109 10107 10104 10106 10110 10111 10113 10116 10119 10125 10129 10136 10143 10156 10169 10183 10196 10207 10219 10231 10245 10254 10261 10268 10274 10281 10287 10295 10297 10302 10303 10308 10311 10315 10317 10320 10322 10322
10145 10146 10145 10144 10141 10138 10134 10130 10124 10119 10116 10113 10114 10112 10111 10110 10109 10111 10111 10111 10113 10116 10118 10120 10123 10129 10135 10142 10149 10154 10165 10178 10189 10200 10210 10222 10234 10241 10247 10253 10259 10267 10271 10276 10283 10285 10288 10290 10294 10297 10298 10302 10304 10306
10139 10139 10139 10138 10136 10134 10130 10127 10124 10121 10117 10114 10114 10114 10111 10110 10111 10110 10112 10112 10114 10118 10122 10126 10129 10132 10137 10142 10145 10151 10161 10172 10183 10191 10201 10212 10218 10223 10229 10238 10245 10249 10251 10259 10263 10268 10271 10273 10276 10280 10283 10286 10288 10289
10132 10133 10133 10132 10131 10129 10127 10124 10121 10119 10118 10115 10113 10113 10114 10112 10110 10111 10113 10115 10117 10119 10122 10126 10131 10134 10139 10144 10149 10156 10161 10166 10175 10186 10193 10198 10203 10209 10217 10226 10232 10238 10243 10246 10251 10254 10259 10263 10265 10268 10271 10272 10271 10270
10123 10126 10127 10127 10126 10125 10122 10121 10119 10116 10114 10114 10114 10113 10113 10113 10114 10112 10112 10115 10117 10120 10124 10128 10133 10138 10142 10145 10152 10157 10163 10171 10177 10180 10183 10188 10196 10205 10211 10216 10221 10226 10230 10234 10237 10242 10246 10249 10252 10253 10255 10255 10254 10254
10115 10119 10121 10121 10121 10120 10119 10117 10115 10113 10112 10110 10110 10110 10111 10111 10112 10113 10114 10113 10115 10118 10121 10125 10129 10134 10140 10145 10148 10154 10160 10165 10171 10175 10178 10182 10188 10196 10202 10206 10210 10215 10219 10222 10224 10228 10231 10233 10234 10235 10236 10236 10235 10234
10107 10111 10114 10115 10116 10115 10115 10113 10111 10109 10107 10106 10106 10105 10106 10108 10108 10109 10111 10113 10115 10115 10117 10120 10124 10127 10133 10138 10143 10147 10152 10156 10160 10165 10171 10174 10177 10183 10189 10194 10198 10202 10205 10208 10210 10212 10214 10216 10217 10217 10218 10217 10215 10214
10097 10102 10105 10108 10109 10110 10109 10109 10108 10106 10104 10102 10101 10101 10101 10102 10103 10104 10106 10108 10110 10112 10115 10117 10119 10121 10124 10126 10130 10135 10139 10143 10147 10152 10157 10161 10165 10168 10171 10174 10178 10182 10186 10190 10193 10194 10196 10198 10198 10199 10199 10198 10197 10193
10086 10092 10096 10099 10102 10104 10103 10104 10103 10101 10100 10099 10098 10096 10095 10096 10097 10098 10099 10101 10103 10105 10107 10109 10112 10115 10117 10119 10121 10123 10125 10129 10133 10137 10140 10144 10147 10151 10154 10158 10161 10164 10167 10170 10172 10174 10177 10178 10179 10180 10179 10177 10175 10173
10075 10080 10085 10089 10092 10095 10097 10097 10098 10097 10096 10095 10094 10093 10092 10091 10090 10090 10091 10092 10094 10096 10098 10100 10103 10105 10107 10109 10111 10114 10116 10119 10121 10123 10126 10128 10130 10133 10137 10140 10143 10146 10149 10152 10154 10156 10158 10159 10160 10161 10160 10158 10157 10153
10063 10069 10074 10078 10082 10086 10089 10090 10090 10090 10090 10090 10089 10088 10087 10086 10085 10085 10085 10085 10085 10086 10090 10092 10093 10094 10095 10097 10098 10100 10102 10104 10105 10107 10109 10111 10113 10116 10119 10122 10126 10130 10132 10134 10136 10138 10140 10141 10142 10141 10142 10141 10139 10136
10050 10055 10061 10066 10071 10076 10079 10081 10082 10082 10082 10082 10083 10082 10081 10081 10080 10080 10080 10079 10079 10078 10080 10082 10083 10083 10084 10086 10087 10088 10089 10090 10092 10093 10094 10095 10097 10099 10101 10104 10108 10110 10113 10115 10117 10120 10122 10123 10124 10125 10125 10125 10125 10123
10035 10041 10048 10054 10060 10063 10066 10070 10073 10075 10075 10075 10076 10075 10074 10074 10072 10073 10074 10074 10073 10072 10073 10074 10074 10075 10075 10075 10075 10076 10077 10078 10078 10078 10079 10079 10080 10081 10083 10086 10089 10092 10095 10098 10101 10104 10106 10108 10109 10111 10113 10113 10112 10112
10019 10026 10034 10042 10046 10049 10052 10058 10062 10064 10066 10067 10068 10067 10067 10066 10065 10065 10065 10066 10066 10065 10065 10065 10066 10066 10066 10066 10067 10067 10067 10066 10066 10065 10064 10064 10065 10067 10069 10072 10075 10078 10082 10084 10087 10090 10094 10097 10099 10101 10103 10103 10104 10105
10003 10010 10021 10027 10031 10033 10037 10044 10049 10052 10054 10057 10057 10058 10060 10059 10058 10057 10058 10059 10059 10059 10058 10058 10058 10059 10059 10060 10060 10060 10059 10058 10057 10056 10055 10055 10056 10058 10060 10063 10066 10069 10072 10075 10078 10082 10085 10089 10092 10094 10096 10097 10098 10097
9986 9995 10003 10009 10013 10018 10022 10029 10035 10037 10041 10044 10045 10048 10051 10050 10050 10050 10050 10051 10052 10053 10052 10052 10052 10053 10054 10054 10055 10054 10054 10052 10051 10051 10051 10051 10052 10054 10056 10058 10061 10064 10068 10071 10074 10078 10081 10085 10087 10089 10090 10091 10090 10089
9970 9979 9984 9989 9994 10001 10006 10014 10020 10025 10027 10030 10032 10037 10039 10040 10041 10041 10041 10043 10044 10046 10046 10046 10047 10047 10048 10049 10049 10049 10049 10049 10049 10048 10049 10050 10052 10054 10056 10059 10061 10064 10067 10070 10073 10075 10078 10081 10082 10083 10084 10084 10083 10082
9951 9957 9963 9970 9977 9983 9990 9997 10004 10009 10013 10015 10020 10025 10028 10029 10031 10032 10032 10035 10036 10038 10040 10040 10041 10042 10043 10044 10045 10045 10046 10048 10048 10049 10051 10052 10054 10056 10058 10060 10062 10064 10066 10069 10071 10074 10075 10076 10077 10078 10078 10078 10076 10074
9930 9936 9944 9952 9960 9967 9974 9980 9987 9993 9997 10002 10007 10012 10015 10018 10020 10021 10023 10026 10027 10029 10032 10033 10034 10036 10038 10039 10041 10042 10043 10045 10046 10049 10051 10052 10054 10056 10058 10060 10062 10064 10065 10067 10068 10070 10071 10072 10072 10073 10072 10070 10068 10065
9909 9918 9926 9934 9942 9949 9957 9964 9971 9977 9983 9987 9992 9997 10000 10004 10007 10011 10014 10016 10019 10020 10022 10026 10027 10029 10031 10033 10035 10037 10039 10041 10043 10045 10048 10049 10051 10053 10055 10057 10058 10060 10062 10063 10064 10065 10066 10066 10066 10065 10064 10062 10060 10057
9890 9899 9908 9916 9924 9931 9939 9948 9954 9961 9966 9971 9975 9980 9985 9990 9994 9998 10002 10005 10008 10010 10012 10016 10019 10021 10023 10026 10028 10031 10033 10035 10037 10040 10042 10044 10046 10048 10050 10052 10053 10054 10056 10057 10058 10059 10059 10059 10059 10058 10056 10054 10052 10049
9873 9882 9890 9898 9906 9914 9922 9929 9936 9942 9948 9954 9959 9965 9971 9976 9981 9984 9989 9993 9995 9999 10002 10004 10009 10012 10014 10017 10020 10023 10025 10027 10030 10033 10035 10037 10040 10041 10043 10045 10046 10048 10049 10050 10051 10052 10052 10052 10051 10050 10048 10046 10044 10041
9856 9864 9872 9879 9887 9896 9903 9910 9916 9923 9930 9936 9943 9949 9955 9960 9964 9968 9974 9978 9982 9986 9990 9992 9996 10000 10004 10006 10009 10012 10016 10019 10021 10024 10026 10029 10031 10033 10035 10036 10038 10040 10041 10043 10043 10044 10044 10043 10042 10041 10040 10038 10035 10032